Regional Weather Roundup
Issued by NWS Sterling, VA

Home | Current Version | Previous Version | Graphics & Text | Print | Product List | Glossary On
Versions: 1 2 3 4 5 6 7 8 9 10 11 12 13 14 15 16 17 18 19 20 21 22 23 24 25 26 27
000
ASUS41 KLWX 182011
RWRLWX

REGIONAL WEATHER ROUNDUP
NATIONAL WEATHER SERVICE BALTIMORE MD/WASHINGTON DC
400 PM EDT MON SEP 18 2017

Note: "FAIR" indicates few or no clouds below 12,000 feet
with no significant weather and/or obstructions to visibility.
 TC=TEMPERATURE CELSIUS

 * =Non NWS site. Station does not report precipitation (e.g. rain,
    snow, etc.), thunder, or fog.

DCZ001-MDZ009-015-VAZ040>042-051-053>054-182100-
WASHINGTON METRO

CITY           SKY/WX    TMP DP  RH WIND       PRES   REMARKS
WASHINGTON NAT CLOUDY    75  69  81 NE12      30.06F
DULLES         PTSUNNY   79  66  64 NE7       30.05F
ANDREWS AFB    MOSUNNY   73  68  83 N8        30.05S
FT BELVOIR     PTSUNNY   75  67  75 CALM      30.05F
QUANTICO       CLOUDY    76  70  82 E10       30.06S
COLLEGE PARK*  CLOUDY    71  67  89 N5        30.06F
LEESBURG*      PTSUNNY   81  68  65 E9        30.06F
MANASSAS*      CLOUDY    78  67  68 E9        30.05S
GAITHERSBURG*  CLOUDY    74  66  76 VRB5      30.09S

$$

MDZ006>007-011-014-182100-
BALTIMORE METRO

CITY           SKY/WX    TMP DP  RH WIND       PRES   REMARKS
BWI AIRPORT    CLOUDY    72  70  93 N5        30.06F FOG
MD SCIENCE CTR   N/A     73  70  90 MISG      30.07S
MARTIN STATE   PTSUNNY   75  72  88 NW7       30.07F
ANNAPOLIS      MOSUNNY   76  72  87 N9        30.04F
FORT MEADE*    CLOUDY    72  68  88 N3        30.09F

$$

MDZ012-015-019>023-182100-
MARYLAND EASTERN SHORE

CITY           SKY/WX    TMP DP  RH WIND       PRES   REMARKS
OCEAN CITY     CLOUDY    74  70  87 NE13G21   29.99F
SALISBURY      CLOUDY    76  69  79 N13       30.00F
CAMBRIDGE*     CLOUDY    79  70  73 NE8       30.01S
EASTON*        PTSUNNY   79  68  69 NE7       30.06S

$$

MDZ017>025-182100-
SOUTHERN MARYLAND

CITY           SKY/WX    TMP DP  RH WIND       PRES   REMARKS
PATUXENT RIVER PTSUNNY   78  70  76 N15       30.01F
ST INIGOES     CLOUDY    78  70  76 VRB5      30.00F
LEONARDTOWN*   PTSUNNY   77  66  69 N5        30.04S

$$

MDZ003>005-182100-
NORTH CENTRAL MARYLAND

CITY           SKY/WX    TMP DP  RH WIND       PRES   REMARKS
FREDERICK*     MOSUNNY   81  64  57 NE6       30.09S
HAGERSTOWN APT PTSUNNY   79  64  60 E9        30.06F
WESTMINSTER*   CLOUDY    73  66  78 N5        30.10S

$$

MDZ501>502-182100-
WESTERN MARYLAND

CITY           SKY/WX    TMP DP  RH WIND       PRES   REMARKS
OAKLAND*       MOSUNNY   68  59  73 CALM      30.12F
CUMBERLAND*    SUNNY     84  63  48 SE7       30.08F

$$

VAZ025>031-182100-
SHENANDOAH VALLEY

CITY           SKY/WX    TMP DP  RH WIND       PRES   REMARKS
WINCHESTER*    MOSUNNY   79  63  57 E9        30.05F
FRONT ROYAL*   PTSUNNY   79  64  61 NE7       30.05S
LURAY*         MOSUNNY   81  63  54 E3        30.04F
NEW MARKET*    CLOUDY    83  62  48 E9        30.03F
STAUNTON*      CLOUDY    75  64  67 E3        30.08F
WAYNESBORO*    CLOUDY    76  66  70 NE6       30.07F

$$

WVZ021-048>050-054>055-182100-
EASTERN WEST VIRGINIA PANHANDLE

CITY           SKY/WX    TMP DP  RH WIND       PRES   REMARKS
MARTINSBURG    SUNNY     80  64  58 NE8       30.04F
PETERSBURG*    MOSUNNY   84  64  50 CALM      30.05F

$$

VAZ036>039-050-182100-
CENTRAL FOOTHILLS

CITY           SKY/WX    TMP DP  RH WIND       PRES   REMARKS
CHARLOTTESVILL MOSUNNY   82  66  58 NE7       30.03F
CULPEPER*      MOSUNNY   82  66  57 NE6       30.04F
ORANGE*        CLOUDY    79  64  61 NE5       30.03F
GORDONSVILLE*  PTSUNNY   78  67  69 E6        30.03F
WARRENTON*     PTSUNNY   82  60  46 NE9       30.04F

$$

VAZ055>057-182100-
NORTH AND CENTRAL PIEDMONT

CITY           SKY/WX    TMP DP  RH WIND       PRES   REMARKS
FREDERICKSBRG* PTSUNNY   76  69  77 NE9       30.04S
STAFFORD*      CLOUDY    76  69  77 E8        30.09S

$$

NCZ024-NYZ072-PAZ021-071-VAZ022-071-182100-
OTHER REGIONAL OBSERVATIONS

CITY           SKY/WX    TMP DP  RH WIND       PRES   REMARKS
NEW YORK CITY  CLOUDY    73  66  78 E10       30.12F
PHILADELPHIA   PTSUNNY   77  67  71 NE12      30.05F
PITTSBURGH     CLOUDY    81  63  54 SW5       30.06F
ROANOKE        PTSUNNY   80  63  55 SE12      30.05F
RICHMOND       MOSUNNY   80  68  66 N12       30.01F
RALEIGH        PTSUNNY   83  64  52 NE10      29.99F

$$

ANZ530>537-182100-
MARINE OBSERVATIONS

STATION/POSITION TIME  TEMP    WIND        PRES
                       AIR SEA DIR/SP/G
                 (UTC) (F)     (DEG/KT/KT) (MB)
THOMAS PT LIGHT  2000   73 76  360/ 14/ 15   N/A
BALT KEY BRIDGE  1948   73      10/  7/  9 1017.6F
COVE POINT       1948   73     360/ 12/ 19 1017.2F
LEWISETTA        1948   77 77   20/  7/ 10 1015.9F
SOLOMONS ISLAND  1942   75 77  360/ 10/ 13 1016.0F
PINEY POINT      1948           30/  9/ 11   N/A

$$





USA.gov is the U.S. government's official web portal to all federal, state and local government web resources and services.